{"data":{"norad_id":57988,"intl_designator":"2023-152C","name":"YAOGAN-39 03B","alt_names":[],"object_type":"PAYLOAD","status":"ACTIVE","operator":null,"country":"PRC","launch_date":"2023-10-05","launch_site_code":"XICLF","launch_vehicle":null,"mission":null,"orbit_class":"UNKNOWN","rcs_meters":null,"size_class":null,"mass_kg":null,"dimensions":null,"purposes":[],"wikipedia_slug":null,"has_3d_model":false,"image_url":null,"decayed_at":null,"tle_current":{"epoch":"2026-09-21T19:59:15.547776Z","epoch_age_seconds":118686,"freshness":"FRESH","line1":"1 57988U 23152C   26264.83281884  .00003176  00000+0  15754-3 0  9993","line2":"2 57988  34.9896  54.1612 0026576   8.9727 351.1456 15.16961293164870","mean_motion":15.16961293,"eccentricity":0.0026576,"inclination_deg":34.9896,"raan_deg":54.1612,"arg_perigee_deg":8.9727,"mean_anomaly_deg":351.1456,"bstar":0.00015754,"rev_number":16487,"period_min":94.926614584358,"perigee_km":496.71137617984,"apogee_km":533.34994091856,"semimajor_km":6893.1676585492,"source":"CELESTRAK","updated_at":"2026-09-22T09:00:26.412281Z"}}}